Simultaneous Nadir Overpasses (SNOs) Predictions

Prediction of SNOs between LANDSAT-8 and METOP-A Satellite Orbit:

Table of predicted SNOs for the next 14.0 days since TLE Epoch: 2/16/2019
Index Date (LANDSAT-8) Time (LANDSAT-8) Lat,Lon (LANDSAT-8) SZA (LANDSAT-8 ) Date (METOP-A) Time (METOP-A) Lat,Lon (METOP-A) SZA (METOP-A ) Distance(km) Time Diff (sec)
1 02/18/2019 13:47:54 -81.44,-161.67 84.86 02/18/2019 13:47:12 -81.44,-161.64 84.87 0.38 42
2 02/18/2019 14:37:20 81.45, 6.09 95.15 02/18/2019 14:37:52 81.44, 6.08 95.16 0.48 32
3 02/21/2019 09:22:08 -81.43, -95.40 85.88 02/21/2019 09:21:26 -81.44, -95.52 85.90 2.21 42
4 02/21/2019 10:11:34 81.44, 72.34 94.13 02/21/2019 10:12:06 81.44, 72.18 94.13 2.72 32
5 02/24/2019 04:56:22 -81.44, -28.77 86.87 02/24/2019 04:55:39 -81.44, -28.62 86.87 2.52 43
6 02/24/2019 05:45:48 81.45, 138.94 93.14 02/24/2019 05:46:19 81.45, 139.07 93.16 2.05 31
7 02/27/2019 00:30:36 -81.45, 37.81 87.88 02/27/2019 00:29:53 -81.44, 37.87 87.89 1.21 43
8 02/27/2019 01:20:02 81.45,-154.49 92.12 02/27/2019 01:20:33 81.45,-154.46 92.13 0.92 31
9 03/01/2019 20:04:50 -81.44, 103.96 88.96 03/01/2019 20:04:07 -81.44, 103.95 88.98 0.60 43




NCC Satellite Simultaneous Nadir Overpasses (SNOs) Prediction Service
